Location: Blanot
(47.1713°N, 4.2340°E)
Time: 03:53:29
(UTC+00:00)

Cosmos 724 - Pass Details

Date: 14 July 2020
Orbit: 859 x 936 km, 65.6° (Epoch: 06 August)

Event Time Altitude Azimuth Distance (km) Brightness Sun altitude
Exits shadow 00:59:22 29° 232° (SW) 1,532 5.1 -19.4°
Maximum altitude 01:02:23 69° 309° (NW) 924 4.4 -19.2°
Drops below altitude 10° 01:08:14 10° 33° (NNE) 2,530 7.8 -18.9°
Sets 01:10:46 0° 36° (NE) 3,481 8.8 -18.8°
